User: anonymous
Location: Griffin Ranch
(33.6186°N, 110.6622°W)
Time: 03:06:05
(UTC-07:00)
Language:

Cosmos 1812 - Orbit

View from above orbital plane
View from above orbital plane
View from above satellite
View from above satellite

Ground track
Ground track

The orbit data is extracted from the following two-line orbital elements,

1 17295U 87003A   14109.11444760  .00006229  00000-0  39475-3 0  2997
2 17295 082.5172 197.5238 0006324 149.0712 256.0078 15.08768377484382
Epoch (UTC): 19 April 2014 02:44:48
Eccentricity: 0.0006324
inclination: 82.5172°
perigee height: 535 km
apogee height: 544 km
right ascension of ascending node: 197.5238°
argument of perigee: 149.0712°
revolutions per day: 15.08768377
mean anomaly at epoch: 256.0078°
orbit number at epoch: 48438

The dashed part of the orbit path shows where the satellite is in the earth's shadow,  

DLR